Regional Weather Roundup
Issued by NWS

Home | Current Version | Previous Version | Text Only | Print | Product List | Glossary On
Versions: 1 2 3 4 5 6 7 8 9 10 11 12 13 14 15 16 17 18 19 20 21 22 23 24 25 26 27 28 29 30 31 32 33 34 35 36 37 38 39 40 41 42 43 44 45 46 47 48 49 50
000
ASUS46 KPQR 272110
RWROR

OREGON REGIONAL WEATHER ROUNDUP
NATIONAL WEATHER SERVICE PORTLAND OR
100 PM PST FRI FEB 27 2015

NOTE: "FAIR" INDICATES FEW OR NO CLOUDS BELOW 12,000 FEET WITH
NO SIGNIFICANT WEATHER AND/OR OBSTRUCTIONS TO VISIBILITY.

ORZ001>013-272200-
NORTHWEST OREGON


CITY           SKY/WX    TMP DP  RH WIND       PRES   REMARKS
ASTORIA        RAIN      50  47  89 N6        29.70F FOG
NEWPORT        LGT RAIN  50  46  87 W8        29.76F
PORTLAND       PTSUNNY   55  45  68 CALM      29.72F
VANCOUVER WA   PTSUNNY   52  41  66 CALM      29.72F
SCAPPOOSE      CLOUDY    50  46  86 N5        29.72F
HILLSBORO      CLOUDY    51  43  74 NE3       29.71F
AURORA         CLOUDY    52  45  77 S12       29.73F
MCMINNVILLE    PTSUNNY   54  43  66 S8        29.72F
SALEM          CLOUDY    53  45  74 S14       29.72F
CORVALLIS      PTSUNNY   52  45  76 SW9       29.74F
EUGENE         CLOUDY    51  44  77 SW10      29.76F
$$

ORZ021-028-272200-
SOUTHWEST OREGON


CITY           SKY/WX    TMP DP  RH WIND       PRES   REMARKS
NORTH BEND     CLOUDY    50  48  93 CALM      29.81F
BROOKINGS      LGT RAIN  52  50  93 N7G16     29.85F FOG
ROSEBURG       RAIN      49  44  83 CALM      29.78F
SEXTON SUMMIT  LGT RAIN  38  37  97 VRB5      29.72F WCI  34
MEDFORD        LGT RAIN  48  41  76 SW6G18    29.77F
$$

ORZ014>016-041-272200-
COLUMBIA GORGE


CITY           SKY/WX    TMP DP  RH WIND       PRES   REMARKS
TROUTDALE      PTSUNNY   54  43  66 S6        29.71F
THE DALLES     LGT RAIN  47  43  86 NE5       29.75F
$$

ORZ029>031-041-044-049-050-061>064-502-503-505>511-272200-
EASTERN OREGON


CITY           SKY/WX    TMP DP  RH WIND       PRES   REMARKS
REDMOND        PTSUNNY   44  37  76 NW8       29.65F
BEND           LGT RAIN  39  36  87 E3        29.65F
PRINEVILLE     PTSUNNY   41  34  75 W6        29.66F
KLAMATH FALLS  CLOUDY    45  32  60 W17G23    29.69F
LAKEVIEW       PTSUNNY   43  32  65 NW3       29.67F
HERMISTON      CLOUDY    50  37  61 N7        29.72F
PENDLETON      LGT RAIN  45  40  82 W13       29.69S
JOHN DAY       LGT RAIN  39  38  94 W8        29.66F WCI  34
MEACHAM        LGT RAIN  40  34  79 E3        29.66F
LA GRANDE      CLOUDY    46  30  53 S10       29.67F
BAKER CITY     CLOUDY    42  34  73 E10       29.68F
BURNS          NOT AVBL
ROME             N/A     39  34  82 W3        29.64F
ONTARIO        PTSUNNY   54  34  46 E7        29.70F
$$


USA.gov is the U.S. government's official web portal to all federal, state and local government web resources and services.